Regional Weather Roundup
Issued by NWS Lake Charles, LA

Home | Current Version | Previous Version | Text Only | Print | Product List | Glossary On
Versions: 1 2 3 4 5 6 7 8 9 10 11 12 13 14 15 16 17 18 19 20 21 22 23 24 25 26 27
000
ASUS44 KLCH 211110
RWRLCH
REGIONAL WEATHER ROUNDUP
NATIONAL WEATHER SERVICE LAKE CHARLES LA
600 AM CDT SAT APR 21 2018

Note: "fair" indicates few or no clouds below 12,000 feet with no
significant weather and/or obstructions to visibility.


ACROSS SOUTHEAST TEXAS

CITY           SKY/WX    TMP DP  RH WIND       PRES   REMARKS
BEAUMONT       FAIR      62  54  74 E13       30.03S
BEAUMONT CITY  FAIR      62  54  75 E8        30.03F
ORANGE         PTSUNNY   59  55  84 E7        30.06F
JASPER         CLOUDY    58  50  75 E6        30.08S
$$

ACROSS CENTRAL LOUISIANA

CITY           SKY/WX    TMP DP  RH WIND       PRES   REMARKS
LEESVILLE      MOCLDY    55  46  72 E7        30.06F
FULLERTON      FAIR      52  49  89 CALM      30.06F
ALEXANDRIA INT FAIR      51  48  89 E3        30.09F
ESLER FIELD    FAIR      46  46 100 CALM      30.12S
DERIDDER       PTSUNNY   56  46  69 CALM      30.09F
OAKDALE        FAIR      51  49  90 CALM      30.10S
OPELOUSAS      FAIR      52  49  92 CALM      30.11S
$$

ACROSS SOUTHWEST AND SOUTH CENTRAL LOUISIANA

CITY           SKY/WX    TMP DP  RH WIND       PRES   REMARKS
SULPHUR        CLOUDY    61  51  69 E6        30.07S
LAKE CHARLES   CLOUDY    61  52  72 E7        30.06F
CHENNAULT INT  CLOUDY    59  52  77 VRB6      30.07S
CAMERON PHI    CLOUDY    61  54  77 E10       30.06S
DEQUINCY       CLOUDY    57  49  74 CALM      30.07S
JENNINGS       FAIR      56  50  80 E8        30.07F
LAFAYETTE      FAIR      54  52  93 NE7       30.09F
NEW IBERIA     FAIR      58  51  78 NE8       30.10R
ABBEVILLE      FAIR      55  52  90 CALM      30.10R
PATTERSON      FAIR      56  52  86 NE3       30.11R
SALT POINT       N/A    N/A N/A N/A CALM      30.09R
$$

SELECTED SITES ACROSS THE REGION

CITY           SKY/WX    TMP DP  RH WIND       PRES   REMARKS
HOUSTON BUSH   CLOUDY    61  55  81 E9        30.00F
HOUSTON HOBBY  CLOUDY    66  63  90 E10       29.98F
GALVESTON      CLOUDY    68  64  87 E18G26    29.99F
COLLEGE STAT   CLOUDY    59  54  83 E7        30.01R
CONROE         CLOUDY    58  53  84 E5        30.01S
HUNTSVILLE     CLOUDY    59  50  72 E3        30.02S
LUFKIN         CLOUDY    55  47  74 E7        30.05F
SHREVEPORT     FAIR      52  45  77 CALM      30.09S
MONROE         FAIR      48  45  89 CALM      30.15S
NATCHEZ MS     FAIR      46  45  96 N3        30.13S
BATON ROUGE    FAIR      50  47  89 NE5       30.11R
N.O. INTL ARPT FAIR      59  52  77 E5        30.10R
SLIDELL        FAIR      47  45  93 NE3       30.12R
$$

MARINE REPORTS

STATION/POSITION TIME  SKY/WX   TEMP    WIND        PRES    VSBY
                                AIR SEA DIR/SP/G
                 (UTC)          (F)     (DEG/KT/KT) (MB)    (MI)
BUOY 30 S HIGH I 0950            68 70  110/ 17/ 21 1015.6
WVE H/P(F/S)=  5/ 6

SEA RIM ST PARK  1100            66     110/ 15/ 17 1017.0R
PORT ARTHUR      1042            63 67   80/  7/ 12 1017.2F
SABINE PASS N    1042            66 70  110/ 15/ 17 1018.2F
TEXAS POINT      NOT AVBL
CALCASIEU PASS   1048            61 67  100/ 10/ 14 1016.6F
LK CHARLES BEACH 1042            61 66              1017.5F
MARSH ISLAND     NOT AVBL
FRESH WATER LOCK 1042            59 68              1018.3R
AMERADA PASS     1048            59 62   50/  3/  4 1018.8R
$$




USA.gov is the U.S. government's official web portal to all federal, state and local government web resources and services.